QZS-4 (QZSS/PRN 185)

Last updated on Oct. 23, 2020, 5:57 a.m. UTC

1 42965U 17062A   20296.52570152 -.00000345  00000-0  00000+0 0  9990
2 42965  40.8303   9.9318 0749259 270.2272  79.8021  1.00271216 11115
UTC
Height (km)
Latitude
Longitude
Inclination
Orbital Period
UTC large
Height (km)
Speed (km/s)
/
Latitude / Longitude
Inclination (degrees)
Orbital Period (minutes)
Azimuth
Elevation
Range (km)
Doppler Factor
iOS Compass Heading
iOS Angle

Next 30 passes for location: Hong Kong

Rise time Rise Azimuth (degrees) Set time Set Azimuth (degrees) Duration Max altitude (degrees)

No matching passes for this satellites